Powrót do katalogu

COSMOS 1481 DEB

AktywnyHEO
NORAD 14192·DEBRIS·🇷🇺 Russia

Wystrzelony Jul 8, 1983 z Plesetsk Cosmodrome

Loading…

Następne Przeloty (najbliższe 24 godziny)

TLE

ŚwieżeSource: Space-Track

Epoka: Sep 9, 2026, 15:04 UTC

1 14192U 83070E   26252.62810734  .00000792  00000-0  00000-0 0  9991
2 14192  70.4231 231.6077 5636769 231.9686 348.8212  2.03132555241336

Śledź COSMOS 1481 DEB w czasie rzeczywistym z AllMySat

Download on the App Store